timestamp,surface_pressure_avg,surface_temp_avg,battery_voltage,lat,long
2023-10-22 00:09:00+00:00,273.7914,11.3,11.46,47.84626,-54.09684
2023-10-22 00:19:00+00:00,275.8097,11.3,11.46,47.84626,-54.09684
2023-10-22 00:29:00+00:00,281.1614,11.3,11.46,47.84626,-54.09684
2023-10-22 00:39:00+00:00,275.1897,11.3,11.46,47.84626,-54.09684
2023-10-22 00:49:00+00:00,252.0031,11.3,11.46,47.84626,-54.09684
2023-10-22 00:59:00+00:00,240.2081,11.32,11.46,47.84626,-54.09684
2023-10-22 01:09:00+00:00,247.5331,11.3,11.46,47.84626,-54.09684
2023-10-22 01:19:00+00:00,252.1564,11.3,11.46,47.84626,-54.09684
2023-10-22 01:29:00+00:00,255.2381,11.3,11.46,47.84626,-54.09684
2023-10-22 01:39:00+00:00,257.5764,11.3,11.46,47.84626,-54.09684
2023-10-22 01:49:00+00:00,259.9297,11.3,11.46,47.84626,-54.09684
2023-10-22 01:59:00+00:00,272.083,11.3,11.46,47.84626,-54.09684
2023-10-22 02:09:00+00:00,281.9614,11.3,11.46,47.84626,-54.09684
2023-10-22 02:19:00+00:00,276.313,11.3,11.46,47.84626,-54.09684
2023-10-22 02:29:00+00:00,270.983,11.3,11.46,47.84626,-54.09684
2023-10-22 02:39:00+00:00,277.9614,11.3,11.46,47.84626,-54.09684
2023-10-22 02:49:00+00:00,277.4981,11.31,11.46,47.84626,-54.09684
2023-10-22 02:59:00+00:00,272.7864,11.4,11.46,47.84626,-54.09684
2023-10-22 03:09:00+00:00,271.683,11.4,11.46,47.84626,-54.09684
2023-10-22 03:19:00+00:00,273.5797,11.4,11.46,47.84626,-54.09684
2023-10-22 03:29:00+00:00,274.1248,11.4,11.46,47.84626,-54.09684
2023-10-22 03:39:00+00:00,275.6231,11.48,11.46,47.84626,-54.09684
2023-10-22 03:49:00+00:00,284.368,11.4,11.46,47.84626,-54.09684
2023-10-22 03:59:00+00:00,294.208,11.4,11.46,47.84626,-54.09684
2023-10-22 04:09:00+00:00,304.123,11.4,11.46,47.84626,-54.09684
2023-10-22 04:19:01+00:00,304.8063,11.4,11.46,47.84626,-54.09684
2023-10-22 04:29:01+00:00,305.0797,11.4,11.46,47.84626,-54.09684
2023-10-22 04:39:01+00:00,310.723,11.37,11.46,47.84626,-54.09684
2023-10-22 04:49:01+00:00,317.9597,11.37,11.46,47.84626,-54.09684
2023-10-22 04:59:01+00:00,314.6747,11.4,11.46,47.84626,-54.09684
2023-10-22 05:09:01+00:00,315.1497,11.38,11.46,47.84626,-54.09684
2023-10-22 05:19:01+00:00,325.0847,11.36,11.46,47.84626,-54.09684
2023-10-22 05:29:01+00:00,338.4530000000001,11.37,11.46,47.84626,-54.09684
2023-10-22 05:39:01+00:00,327.9430000000001,11.37,11.46,47.84626,-54.09684
2023-10-22 05:49:01+00:00,315.9529,11.36,11.46,47.84626,-54.09684
2023-10-22 05:59:01+00:00,311.4664,11.36,11.46,47.84626,-54.09684
2023-10-22 06:09:01+00:00,318.0062,11.37,11.46,47.84626,-54.09684
2023-10-22 06:19:00+00:00,316.2664,11.38,11.46,47.84626,-54.09684
2023-10-22 06:29:00+00:00,307.5381,11.39,11.46,47.84626,-54.09684
2023-10-22 06:39:00+00:00,304.8847,11.39,11.46,47.84626,-54.09684
2023-10-22 06:49:00+00:00,303.0797,11.39,11.46,47.84626,-54.09684
2023-10-22 06:59:00+00:00,297.3247,11.38,11.46,47.84626,-54.09684
2023-10-22 07:09:00+00:00,293.2047,11.38,11.46,47.84626,-54.09684
2023-10-22 07:19:00+00:00,295.3363,11.37,11.46,47.84626,-54.09684
2023-10-22 07:29:00+00:00,294.5914,11.38,11.46,47.84626,-54.09684
2023-10-22 07:39:00+00:00,280.473,11.39,11.46,47.84626,-54.09684
2023-10-22 07:49:00+00:00,275.0631,11.39,11.46,47.84626,-54.09684
2023-10-22 07:59:00+00:00,254.9781,11.37,11.46,47.84626,-54.09684
2023-10-22 08:09:00+00:00,240.5498,11.33,11.46,47.84626,-54.09684
2023-10-22 08:19:00+00:00,238.8848,11.38,11.46,47.84626,-54.09684
2023-10-22 08:29:00+00:00,242.9464,11.37,11.46,47.84626,-54.09684
2023-10-22 08:39:00+00:00,231.7381,11.4,11.46,47.84626,-54.09684
2023-10-22 08:49:00+00:00,228.9647,11.37,11.46,47.84626,-54.09684
2023-10-22 08:59:00+00:00,239.2864,11.38,11.46,47.84626,-54.09684
2023-10-22 09:09:00+00:00,233.6015,11.39,11.46,47.84626,-54.09684
2023-10-22 09:19:00+00:00,224.1947,11.37,11.46,47.84626,-54.09684
2023-10-22 09:29:00+00:00,228.4648,11.3,11.46,47.84626,-54.09684
2023-10-22 09:39:00+00:00,237.6347,11.3,11.46,47.84626,-54.09684
2023-10-22 09:49:00+00:00,240.8848,11.3,11.46,47.84626,-54.09684
2023-10-22 09:59:00+00:00,234.8547,11.3,11.46,47.84626,-54.09684
2023-10-22 10:09:00+00:00,236.0314,11.31,11.46,47.84626,-54.09684
2023-10-22 10:19:00+00:00,249.0648,11.33,11.46,47.84626,-54.09684
2023-10-22 10:29:00+00:00,250.6981,11.35,11.46,47.84626,-54.09684
2023-10-22 10:39:00+00:00,249.5397,11.35,11.46,47.84626,-54.09684
2023-10-22 10:49:00+00:00,262.9981,11.34,11.46,47.84626,-54.09684
2023-10-22 10:59:00+00:00,272.5581,11.34,11.46,47.84626,-54.09684
2023-10-22 11:09:00+00:00,266.0231,11.34,11.46,47.84626,-54.09684
2023-10-22 11:19:00+00:00,260.1648,11.34,11.46,47.84626,-54.09684
2023-10-22 11:29:00+00:00,264.4814,11.35,11.46,47.84626,-54.09684
2023-10-22 11:39:00+00:00,263.5964,11.35,11.46,47.84626,-54.09684
2023-10-22 11:49:00+00:00,263.6647,11.33,11.46,47.84626,-54.09684
2023-10-22 11:59:00+00:00,273.0714,11.3,11.46,47.84626,-54.09684
2023-10-22 12:09:00+00:00,269.6564,11.3,11.46,47.84626,-54.09684
2023-10-22 12:19:00+00:00,259.3231,11.3,11.46,47.84626,-54.09684
2023-10-22 12:29:00+00:00,262.3648,11.3,11.46,47.84626,-54.09684
2023-10-22 12:39:00+00:00,272.0181,11.31,11.46,47.84626,-54.09684
2023-10-22 12:49:00+00:00,267.2181,11.33,11.46,47.84626,-54.09684
2023-10-22 12:59:00+00:00,264.9031,11.32,11.46,47.84626,-54.09684
2023-10-22 13:09:00+00:00,275.0081,11.32,11.46,47.84626,-54.09684
2023-10-22 13:19:01+00:00,284.0147,11.3,11.46,47.84626,-54.09684
2023-10-22 13:29:01+00:00,283.3264,11.3,11.46,47.84626,-54.09684
2023-10-22 13:39:01+00:00,283.0863,11.31,11.46,47.84626,-54.09684
2023-10-22 13:49:01+00:00,293.563,11.32,11.46,47.84626,-54.09684
2023-10-22 13:59:01+00:00,300.3929,11.31,11.46,47.84626,-54.09684
2023-10-22 14:09:01+00:00,301.693,11.35,11.46,47.84626,-54.09684
2023-10-22 14:19:00+00:00,307.6497,11.36,11.61,47.84626,-54.09684
2023-10-22 14:29:00+00:00,317.0196,11.32,11.61,47.84626,-54.09684
2023-10-22 14:39:00+00:00,324.9547,11.36,11.61,47.84626,-54.09684
2023-10-22 14:49:00+00:00,330.6963,11.34,11.61,47.84626,-54.09684
2023-10-22 14:59:00+00:00,336.1964,11.33,11.61,47.84626,-54.09684
2023-10-22 15:09:00+00:00,343.4296,11.38,11.61,47.84626,-54.09684
2023-10-22 15:19:00+00:00,349.6429,11.3,11.53,47.84626,-54.09684
2023-10-22 15:29:00+00:00,354.75300000000016,11.32,11.53,47.84626,-54.09684
2023-10-22 15:39:00+00:00,354.5063,11.37,11.53,47.84626,-54.09684
2023-10-22 15:49:00+00:00,359.5963,11.35,11.53,47.84626,-54.09684
2023-10-22 15:59:00+00:00,369.0363,11.32,11.53,47.84626,-54.09684
2023-10-22 16:09:00+00:00,369.5546,11.33,11.53,47.84626,-54.09684
2023-10-22 16:19:00+00:00,365.7179,11.39,11.46,47.84626,-54.09684
2023-10-22 16:29:00+00:00,378.7646,11.36,11.46,47.84626,-54.09684
2023-10-22 16:39:00+00:00,390.2829,11.32,11.46,47.84626,-54.09684
2023-10-22 16:49:00+00:00,383.0945,11.39,11.46,47.84626,-54.09684
2023-10-22 16:59:00+00:00,386.0913,11.39,11.46,47.84626,-54.09684
2023-10-22 17:09:00+00:00,401.5196,11.3,11.46,47.84626,-54.09684
2023-10-22 17:19:00+00:00,397.1179,11.33,11.46,47.84626,-54.09684
2023-10-22 17:29:00+00:00,386.4712,11.3,11.46,47.84626,-54.09684
2023-10-22 17:39:00+00:00,393.1762,11.3,11.46,47.84626,-54.09684
2023-10-22 17:49:00+00:00,392.5446,11.3,11.46,47.84626,-54.09684
2023-10-22 17:59:00+00:00,380.1329,11.37,11.46,47.84626,-54.09684
2023-10-22 18:09:00+00:00,382.8213,11.4,11.46,47.84626,-54.09684
2023-10-22 18:19:00+00:00,389.5079,11.35,11.46,47.84626,-54.09684
2023-10-22 18:29:00+00:00,380.0295,11.5,11.46,47.84626,-54.09684
2023-10-22 18:39:00+00:00,370.3529,11.38,11.46,47.84626,-54.09684
2023-10-22 18:49:00+00:00,371.6329,11.32,11.46,47.84626,-54.09684
2023-10-22 18:59:00+00:00,365.0379,11.4,11.46,47.84626,-54.09684
2023-10-22 19:09:00+00:00,355.5079,11.48,11.46,47.84626,-54.09684
2023-10-22 19:19:00+00:00,351.8296,11.38,11.46,47.84626,-54.09684
2023-10-22 19:29:00+00:00,350.793,11.54,11.46,47.84626,-54.09684
2023-10-22 19:39:00+00:00,345.2764,11.5,11.46,47.84626,-54.09684
2023-10-22 19:49:00+00:00,345.1346,11.5,11.46,47.84626,-54.09684
2023-10-22 19:59:00+00:00,343.1163,11.59,11.46,47.84626,-54.09684
2023-10-22 20:09:00+00:00,332.543,11.59,11.46,47.84626,-54.09684
2023-10-22 20:19:00+00:00,328.8297,11.58,11.46,47.84626,-54.09684
2023-10-22 20:29:00+00:00,329.2829,11.59,11.46,47.84626,-54.09684
2023-10-22 20:39:00+00:00,316.5696,11.58,11.46,47.84626,-54.09684
2023-10-22 20:49:00+00:00,305.5646,11.6,11.46,47.84626,-54.09684
2023-10-22 20:59:00+00:00,309.4846,11.72,11.46,47.84626,-54.09684
2023-10-22 21:09:00+00:00,305.0046,11.9,11.46,47.84626,-54.09684
2023-10-22 21:19:00+00:00,292.0047,11.8,11.46,47.84626,-54.09684
2023-10-22 21:29:00+00:00,292.2047,11.8,11.46,47.84626,-54.09684
2023-10-22 21:39:00+00:00,295.0447,11.8,11.46,47.84626,-54.09684
2023-10-22 21:49:00+00:00,289.0198,11.77,11.46,47.84626,-54.09684
2023-10-22 21:59:00+00:00,286.8047,11.8,11.46,47.84626,-54.09684
2023-10-22 22:09:00+00:00,290.9431,11.8,11.46,47.84626,-54.09684
2023-10-22 22:19:00+00:00,288.348,11.8,11.46,47.84626,-54.09684
2023-10-22 22:29:00+00:00,277.7814,11.8,11.46,47.84626,-54.09684
2023-10-22 22:39:00+00:00,283.353,11.79,11.46,47.84626,-54.09684
2023-10-22 22:49:00+00:00,290.158,11.78,11.46,47.84626,-54.09684
2023-10-22 22:59:00+00:00,283.338,11.61,11.46,47.84626,-54.09684
2023-10-22 23:09:00+00:00,272.8947,11.6,11.46,47.84626,-54.09684
2023-10-22 23:19:01+00:00,280.1214,11.7,11.37,47.84626,-54.09684
2023-10-22 23:29:01+00:00,283.708,11.6,11.37,47.84626,-54.09684
2023-10-22 23:39:01+00:00,271.3514,11.6,11.37,47.84626,-54.09684
2023-10-22 23:49:01+00:00,265.6165,11.6,11.37,47.84626,-54.09684
2023-10-22 23:59:01+00:00,270.853,11.53,11.37,47.84626,-54.09684
